| time (UTC) | temp F | wind direction | speed MPH | gust MPH | rain 1hr in | rain 24hr in | rain mn in | humidity % | barometer mb |
| 20260906202115 | 85 | 161 | 2.0 | 3.0 | 0.00 | 0.00 | 0.00 | 78 | 1014.2 |
| 20260906201118 | 85 | 186 | 1.0 | 2.0 | 0.00 | 0.00 | 0.00 | 79 | 1014.1 |
| 20260906200119 | 84 | 175 | 2.0 | 4.0 | 0.00 | 0.00 | 0.00 | 78 | 1014.2 |
| 20260906195119 | 83 | 157 | 2.0 | 4.0 | 0.00 | 0.00 | 0.00 | 80 | 1014.0 |
| 20260906194116 | 83 | 157 | 3.0 | 6.0 | 0.00 | 0.00 | 0.00 | 81 | 1014.0 |
| 20260906193116 | 83 | 164 | 3.0 | 4.0 | 0.00 | 0.00 | 0.00 | 81 | 1013.8 |
| 20260906192119 | 83 | 175 | 3.0 | 5.0 | 0.00 | 0.00 | 0.00 | 82 | 1013.8 |
| 20260906191116 | 82 | 173 | 1.0 | 2.0 | 0.00 | 0.00 | 0.00 | 84 | 1014.0 |
| 20260906190116 | 82 | 167 | 3.0 | 4.0 | 0.00 | 0.00 | 0.00 | 83 | 1014.0 |
| 20260906185117 | 81 | 161 | 2.0 | 4.0 | 0.00 | 0.00 | 0.00 | 84 | 1014.0 |
| 20260906184117 | 81 | 164 | 3.0 | 5.0 | 0.00 | 0.00 | 0.00 | 84 | 1014.2 |
| 20260906183117 | 81 | 154 | 3.0 | 5.0 | 0.00 | 0.00 | 0.00 | 84 | 1014.5 |
| 20260906182117 | 80 | 152 | 4.0 | 7.0 | 0.00 | 0.00 | 0.00 | 85 | 1014.5 |
| 20260906181118 | 80 | 171 | 2.0 | 4.0 | 0.00 | 0.00 | 0.00 | 86 | 1014.9 |
| 20260906180118 | 80 | 155 | 3.0 | 7.0 | 0.00 | 0.00 | 0.00 | 86 | 1014.9 |
| 20260906175118 | 79 | 166 | 3.0 | 7.0 | 0.00 | 0.00 | 0.00 | 86 | 1015.0 |
| 20260906174138 | 78 | 191 | 2.0 | 6.0 | 0.00 | 0.00 | 0.00 | 87 | 1015.0 |
| 20260906173118 | 78 | 187 | 2.0 | 5.0 | 0.00 | 0.00 | 0.00 | 88 | 1015.2 |
| 20260906172118 | 77 | 161 | 2.0 | 6.0 | 0.00 | 0.00 | 0.00 | 88 | 1015.3 |
| 20260906171119 | 77 | 147 | 2.0 | 6.0 | 0.00 | 0.00 | 0.00 | 89 | 1015.5 |
| 20260906170136 | 77 | 171 | 3.0 | 6.0 | 0.00 | 0.00 | 0.00 | 88 | 1015.6 |
| 20260906165118 | 76 | 188 | 2.0 | 4.0 | 0.00 | 0.00 | 0.00 | 89 | 1015.8 |
| 20260906164219 | 76 | 162 | 5.0 | 8.0 | 0.00 | 0.01 | 0.00 | 89 | 1015.9 |
| 20260906163119 | 75 | 160 | 4.0 | 6.0 | 0.00 | 0.06 | 0.00 | 89 | 1015.9 |
| 20260906162116 | 75 | 166 | 3.0 | 7.0 | 0.00 | 0.13 | 0.00 | 90 | 1015.9 |
| 20260906161116 | 75 | 165 | 2.0 | 5.0 | 0.00 | 0.23 | 0.00 | 90 | 1016.0 |
| 20260906160136 | 75 | 166 | 2.0 | 5.0 | 0.00 | 0.25 | 0.00 | 90 | 1016.1 |
| 20260906155120 | 75 | 187 | 2.0 | 3.0 | 0.00 | 0.25 | 0.00 | 90 | 1016.2 |
| 20260906154137 | 74 | 169 | 2.0 | 3.0 | 0.00 | 0.28 | 0.00 | 91 | 1016.2 |
| 20260906153117 | 74 | 265 | 1.0 | 2.0 | 0.00 | 0.39 | 0.00 | 90 | 1016.2 |
| 20260906152117 | 74 | 184 | 1.0 | 3.0 | 0.00 | 0.39 | 0.00 | 91 | 1016.1 |
| 20260906151117 | 73 | 158 | 3.0 | 5.0 | 0.00 | 0.39 | 0.00 | 90 | 1016.1 |
| 20260906150117 | 73 | 223 | 1.0 | 2.0 | 0.00 | 0.39 | 0.00 | 90 | 1016.2 |
| 20260906145118 | 73 | 152 | 2.0 | 5.0 | 0.00 | 0.39 | 0.00 | 90 | 1016.1 |
| 20260906144118 | 73 | 164 | 2.0 | 4.0 | 0.00 | 0.39 | 0.00 | 91 | 1016.2 |
| 20260906143122 | 73 | 154 | 2.0 | 3.0 | 0.00 | 0.39 | 0.00 | 91 | 1016.3 |
| 20260906142122 | 72 | 244 | 1.0 | 2.0 | 0.00 | 0.39 | 0.00 | 91 | 1016.4 |
| 20260906141143 | 72 | 172 | 2.0 | 3.0 | 0.00 | 0.39 | 0.00 | 91 | 1016.4 |
| 20260906140118 | 71 | 156 | 3.0 | 5.0 | 0.00 | 0.39 | 0.00 | 91 | 1016.5 |
| 20260906135123 | 71 | 195 | 2.0 | 2.0 | 0.00 | 0.39 | 0.00 | 92 | 1016.6 |
| 20260906134123 | 71 | 184 | 2.0 | 4.0 | 0.00 | 0.39 | 0.00 | 92 | 1016.7 |
| 20260906133123 | 70 | 138 | 1.0 | 2.0 | 0.00 | 0.39 | 0.00 | 92 | 1016.6 |
| 20260906132123 | 70 | 182 | 2.0 | 3.0 | 0.00 | 0.39 | 0.00 | 92 | 1016.6 |
| 20260906131144 | 70 | 150 | 3.0 | 4.0 | 0.00 | 0.39 | 0.00 | 92 | 1016.5 |
| 20260906130124 | 70 | 161 | 1.0 | 1.0 | 0.00 | 0.39 | 0.00 | 93 | 1016.5 |
| 20260906125125 | 69 | 157 | 4.0 | 5.0 | 0.00 | 0.39 | 0.00 | 93 | 1016.5 |
| 20260906124124 | 69 | 140 | 1.0 | 2.0 | 0.00 | 0.39 | 0.00 | 93 | 1016.5 |
| 20260906123124 | 69 | 116 | 1.0 | 2.0 | 0.00 | 0.39 | 0.00 | 93 | 1016.4 |
| 20260906122124 | 68 | 158 | 1.0 | 2.0 | 0.00 | 0.39 | 0.00 | 94 | 1016.4 |
| 20260906121144 | 68 | 138 | 0.0 | 1.0 | 0.00 | 0.39 | 0.00 | 94 | 1016.4 |
| 20260906120118 | 68 | 125 | 1.0 | 2.0 | 0.00 | 0.39 | 0.00 | 94 | 1016.3 |
| 20260906115118 | 68 | 38 | 1.0 | 2.0 | 0.00 | 0.39 | 0.00 | 94 | 1016.2 |
| 20260906114119 | 68 | 98 | 0.0 | 0.0 | 0.00 | 0.39 | 0.00 | 94 | 1016.2 |
| 20260906113118 | 68 | 111 | 0.0 | 1.0 | 0.00 | 0.39 | 0.00 | 94 | 1016.2 |
| 20260906112119 | 68 | 169 | 1.0 | 2.0 | 0.00 | 0.39 | 0.00 | 95 | 1016.3 |
| 20260906111115 | 68 | 283 | 0.0 | 1.0 | 0.00 | 0.39 | 0.00 | 94 | 1016.2 |
| 20260906110119 | 68 | 89 | 1.0 | 2.0 | 0.00 | 0.39 | 0.00 | 95 | 1016.3 |
| 20260906105119 | 68 | 195 | 0.0 | 1.0 | 0.00 | 0.39 | 0.00 | 94 | 1016.3 |
| 20260906104119 | 68 | 329 | 0.0 | 1.0 | 0.00 | 0.39 | 0.00 | 94 | 1016.2 |
| 20260906103116 | 68 | 52 | 0.0 | 2.0 | 0.00 | 0.39 | 0.00 | 95 | 1016.1 |
| 20260906102116 | 67 | 0.0 | 0.0 | 0.00 | 0.39 | 0.00 | 95 | 1016.1 | |
| 20260906101139 | 67 | 89 | 0.0 | 2.0 | 0.00 | 0.39 | 0.00 | 95 | 1016.1 |
| 20260906100117 | 67 | 33 | 2.0 | 4.0 | 0.00 | 0.39 | 0.00 | 95 | 1016.2 |
| 20260906095117 | 67 | 76 | 1.0 | 2.0 | 0.00 | 0.39 | 0.00 | 95 | 1016.3 |
| 20260906094137 | 67 | 22 | 0.0 | 1.0 | 0.00 | 0.39 | 0.00 | 95 | 1016.3 |
| 20260906093118 | 67 | 36 | 1.0 | 2.0 | 0.00 | 0.39 | 0.00 | 95 | 1016.2 |
| 20260906092117 | 67 | 43 | 0.0 | 1.0 | 0.00 | 0.39 | 0.00 | 95 | 1016.1 |
| 20260906091118 | 67 | 28 | 0.0 | 1.0 | 0.00 | 0.39 | 0.00 | 95 | 1016.1 |
| 20260906090138 | 67 | 101 | 1.0 | 2.0 | 0.00 | 0.39 | 0.00 | 95 | 1016.0 |
| 20260906085138 | 67 | 79 | 1.0 | 2.0 | 0.00 | 0.39 | 0.00 | 95 | 1016.0 |
| 20260906084118 | 67 | 52 | 1.0 | 3.0 | 0.00 | 0.39 | 0.00 | 95 | 1016.0 |
| 20260906083116 | 67 | 58 | 2.0 | 4.0 | 0.00 | 0.39 | 0.00 | 94 | 1015.9 |
| 20260906082118 | 68 | 26 | 0.0 | 1.0 | 0.00 | 0.39 | 0.00 | 94 | 1015.9 |
| 20260906081119 | 68 | 310 | 0.0 | 0.0 | 0.00 | 0.39 | 0.00 | 94 | 1016.0 |
| 20260906080119 | 68 | 98 | 1.0 | 3.0 | 0.00 | 0.39 | 0.00 | 94 | 1016.0 |
| 20260906075119 | 68 | 73 | 1.0 | 2.0 | 0.00 | 0.39 | 0.00 | 93 | 1016.0 |
| 20260906074116 | 68 | 39 | 0.0 | 1.0 | 0.00 | 0.39 | 0.00 | 93 | 1016.0 |
| 20260906073136 | 69 | 25 | 0.0 | 1.0 | 0.00 | 0.39 | 0.00 | 93 | 1016.0 |
| 20260906072119 | 69 | 33 | 0.0 | 1.0 | 0.00 | 0.39 | 0.00 | 92 | 1016.0 |
| 20260906071137 | 69 | 216 | 0.0 | 1.0 | 0.00 | 0.39 | 0.00 | 92 | 1016.1 |
| 20260906070117 | 69 | 204 | 0.0 | 1.0 | 0.00 | 0.39 | 0.00 | 92 | 1016.2 |
| 20260906065117 | 70 | 204 | 0.0 | 1.0 | 0.00 | 0.39 | 0.00 | 91 | 1016.2 |
| 20260906064137 | 70 | 136 | 0.0 | 1.0 | 0.00 | 0.39 | 0.00 | 91 | 1016.1 |
| 20260906063117 | 70 | 243 | 1.0 | 2.0 | 0.00 | 0.39 | 0.00 | 91 | 1016.2 |
| 20260906062118 | 70 | 242 | 0.0 | 1.0 | 0.00 | 0.39 | 0.00 | 91 | 1016.3 |
| 20260906061117 | 70 | 275 | 1.0 | 2.0 | 0.00 | 0.39 | 0.00 | 91 | 1016.1 |
| 20260906060138 | 71 | 76 | 1.0 | 2.0 | 0.00 | 0.39 | 0.00 | 90 | 1016.0 |
| 20260906055118 | 71 | 311 | 1.0 | 2.0 | 0.00 | 0.39 | 0.00 | 90 | 1015.9 |
| 20260906054118 | 71 | 157 | 2.0 | 3.0 | 0.00 | 0.39 | 0.00 | 91 | 1015.7 |
| 20260906053119 | 70 | 197 | 1.0 | 3.0 | 0.00 | 0.39 | 0.00 | 91 | 1015.5 |
| 20260906052119 | 70 | 248 | 1.0 | 2.0 | 0.00 | 0.39 | 0.00 | 91 | 1015.7 |
| 20260906051138 | 70 | 309 | 1.0 | 3.0 | 0.00 | 0.39 | 0.00 | 91 | 1015.8 |
| 20260906050116 | 70 | 205 | 0.0 | 2.0 | 0.00 | 0.39 | 0.00 | 92 | 1015.9 |
| 20260906045119 | 70 | 342 | 1.0 | 2.0 | 0.00 | 0.39 | 0.39 | 92 | 1015.9 |
| 20260906044119 | 70 | 54 | 1.0 | 2.0 | 0.00 | 0.39 | 0.39 | 92 | 1016.1 |
| 20260906043119 | 71 | 45 | 1.0 | 2.0 | 0.00 | 0.39 | 0.39 | 91 | 1016.0 |
| 20260906042116 | 72 | 89 | 1.0 | 2.0 | 0.00 | 0.39 | 0.39 | 90 | 1015.9 |
| 20260906041117 | 72 | 11 | 1.0 | 2.0 | 0.00 | 0.39 | 0.39 | 89 | 1015.7 |
| 20260906040117 | 73 | 55 | 1.0 | 2.0 | 0.00 | 0.39 | 0.39 | 87 | 1015.8 |
| 20260906035137 | 73 | 305 | 0.0 | 1.0 | 0.00 | 0.39 | 0.39 | 87 | 1015.8 |
| 20260906034217 | 73 | 237 | 0.0 | 1.0 | 0.00 | 0.39 | 0.39 | 86 | 1015.9 |
| 20260906033118 | 73 | 304 | 1.0 | 3.0 | 0.00 | 0.39 | 0.39 | 87 | 1015.9 |
| 20260906032137 | 73 | 58 | 0.0 | 2.0 | 0.00 | 0.39 | 0.39 | 87 | 1016.1 |
| 20260906031117 | 73 | 267 | 0.0 | 2.0 | 0.00 | 0.39 | 0.39 | 87 | 1016.1 |
| 20260906030118 | 74 | 84 | 0.0 | 1.0 | 0.00 | 0.39 | 0.39 | 86 | 1016.2 |
| 20260906025138 | 74 | 185 | 0.0 | 1.0 | 0.00 | 0.39 | 0.39 | 86 | 1016.2 |
| 20260906024118 | 74 | 114 | 1.0 | 3.0 | 0.00 | 0.39 | 0.39 | 86 | 1016.1 |
| 20260906023115 | 75 | 28 | 2.0 | 3.0 | 0.00 | 0.39 | 0.39 | 84 | 1015.7 |
| 20260906022118 | 75 | 162 | 2.0 | 3.0 | 0.00 | 0.39 | 0.39 | 86 | 1015.4 |
| 20260906021119 | 75 | 165 | 3.0 | 4.0 | 0.00 | 0.39 | 0.39 | 85 | 1015.3 |
| 20260906020119 | 76 | 30 | 2.0 | 4.0 | 0.00 | 0.38 | 0.38 | 84 | 1015.8 |
| 20260906015116 | 76 | 23 | 1.0 | 3.0 | 0.00 | 0.38 | 0.38 | 84 | 1015.6 |
| 20260906014156 | 76 | 159 | 2.0 | 3.0 | 0.00 | 0.38 | 0.38 | 85 | 1015.4 |
| 20260906013119 | 76 | 39 | 1.0 | 2.0 | 0.00 | 0.38 | 0.38 | 85 | 1015.4 |
| 20260906012120 | 76 | 42 | 0.0 | 1.0 | 0.00 | 0.38 | 0.38 | 85 | 1014.9 |
| 20260906011157 | 77 | 33 | 1.0 | 2.0 | 0.00 | 0.38 | 0.38 | 85 | 1014.8 |
| 20260906010137 | 78 | 44 | 0.0 | 2.0 | 0.00 | 0.38 | 0.38 | 84 | 1014.6 |
| 20260906005117 | 79 | 209 | 0.0 | 1.0 | 0.00 | 0.38 | 0.38 | 81 | 1014.5 |
| 20260906004117 | 79 | 300 | 0.0 | 0.0 | 0.00 | 0.38 | 0.38 | 78 | 1014.4 |
| 20260906003120 | 80 | 170 | 0.0 | 2.0 | 0.00 | 0.38 | 0.38 | 76 | 1014.2 |
| 20260906002117 | 81 | 0.0 | 0.0 | 0.00 | 0.38 | 0.38 | 74 | 1013.9 | |
| 20260906001117 | 82 | 206 | 1.0 | 2.0 | 0.00 | 0.38 | 0.38 | 74 | 1013.6 |
| 20260906000118 | 82 | 197 | 1.0 | 2.0 | 0.00 | 0.38 | 0.38 | 73 | 1013.2 |
| 20260905235118 | 83 | 173 | 1.0 | 3.0 | 0.00 | 0.38 | 0.38 | 71 | 1012.9 |
| 20260905234115 | 82 | 165 | 2.0 | 4.0 | 0.00 | 0.38 | 0.38 | 71 | 1012.8 |
| 20260905233119 | 83 | 168 | 2.0 | 4.0 | 0.00 | 0.38 | 0.38 | 70 | 1012.8 |
| 20260905232119 | 84 | 160 | 2.0 | 3.0 | 0.00 | 0.38 | 0.38 | 68 | 1013.0 |
| 20260905231139 | 84 | 154 | 3.0 | 6.0 | 0.00 | 0.38 | 0.38 | 67 | 1013.1 |
| 20260905230119 | 84 | 168 | 2.0 | 5.0 | 0.00 | 0.38 | 0.38 | 66 | 1013.2 |
| 20260905225116 | 84 | 161 | 4.0 | 7.0 | 0.00 | 0.38 | 0.38 | 66 | 1013.1 |
| 20260905224117 | 84 | 179 | 3.0 | 5.0 | 0.00 | 0.38 | 0.38 | 66 | 1013.1 |
| 20260905223119 | 84 | 153 | 5.0 | 9.0 | 0.00 | 0.38 | 0.38 | 66 | 1013.1 |
| 20260905222117 | 84 | 168 | 3.0 | 7.0 | 0.00 | 0.38 | 0.38 | 68 | 1013.0 |
| 20260905221117 | 83 | 173 | 3.0 | 5.0 | 0.00 | 0.38 | 0.38 | 68 | 1013.0 |
| 20260905220137 | 83 | 156 | 5.0 | 9.0 | 0.00 | 0.38 | 0.38 | 68 | 1013.1 |
| 20260905215117 | 82 | 157 | 5.0 | 7.0 | 0.00 | 0.38 | 0.38 | 68 | 1013.1 |
| 20260905214137 | 82 | 151 | 6.0 | 9.0 | 0.00 | 0.38 | 0.38 | 69 | 1013.1 |
| 20260905213118 | 82 | 150 | 5.0 | 9.0 | 0.00 | 0.38 | 0.38 | 71 | 1013.3 |
| 20260905212117 | 82 | 158 | 4.0 | 7.0 | 0.00 | 0.38 | 0.38 | 71 | 1013.3 |
| 20260905211118 | 82 | 159 | 6.0 | 8.0 | 0.00 | 0.38 | 0.38 | 70 | 1013.4 |
| 20260905210118 | 82 | 156 | 5.0 | 9.0 | 0.00 | 0.38 | 0.38 | 69 | 1013.4 |
| 20260905205115 | 81 | 160 | 6.0 | 11.0 | 0.00 | 0.38 | 0.38 | 71 | 1013.7 |
| 20260905204118 | 81 | 158 | 6.0 | 9.0 | 0.00 | 0.38 | 0.38 | 71 | 1013.7 |
| 20260905203119 | 81 | 169 | 3.0 | 5.0 | 0.00 | 0.38 | 0.38 | 72 | 1013.9 |